Aurora, OR

1:53 AM PDT on April 28, 2017 (GMT -0700)
Aurora State

Weather History for KUAO - November, 2012

Change the Weather History Date:

Monday, November 19, 2012

  Actual Average Record
Temperature  
Mean Temperature 54 °F -  
Max Temperature 59 °F - 62 °F (2002)
Min Temperature 50 °F - 25 °F (2000)
Degree Days  
Heating Degree Days 10    
Month to date heating degree days 284  
Since 1 July heating degree days 715  
Cooling Degree Days 0    
Month to date cooling degree days 0  
Year to date cooling degree days 295  
Growing Degree Days 4 (Base 50)    
Moisture  
Dew Point 50 °F    
Average Humidity 82    
Maximum Humidity 96    
Minimum Humidity 67    
Precipitation  
Precipitation 2.09 in - 2.09 in (2012)
Month to date precipitation 5.01  
Year to date precipitation 41.73  
Sea Level Pressure  
Sea Level Pressure 29.64 in    
Wind  
Wind Speed 12 mph (SSW)    
Max Wind Speed 24 mph    
Max Gust Speed 41 mph    
Visibility 8 miles    
Events Rain    
T = Trace of Precipitation, MM = Missing Value Source: NWS Daily Summary

Daily Weather History Graph

Daily Weather History Graph

Search for Another Location

Airport or City:

Trip Planner

Search our weather history database for the weather conditions in past years. The results will help you decide how hot, cold, wet, or windy it might be!

Date:

Astronomy

Nov. 19, 2012 Rise Set
Actual Time 7:15 AM PST 4:37 PM PST
Civil Twilight 6:43 AM PST 5:09 PM PST
Nautical Twilight 6:07 AM PST 5:45 PM PST
Astronomical Twilight 5:32 AM PST 6:20 PM PST
Moon 12:14 PM PST (11/19) 11:18 PM PST (11/19)
Length of Visible Light 10h 26m
Length of Day
9h 21m
Waxing Crescent, 42% of the Moon is Illuminated
Nov 19
Waxing Crescent
Nov 20
First Quarter
Nov 28
Full
Dec 6
Last Quarter
Dec 13
New

Hourly Weather History & Observations

Time (PST) Temp. Dew Point Humidity Pressure Visibility Wind Dir Wind Speed Gust Speed Precip Events Conditions
12:53 AM 50.0 °F 48.0 °F 93% 29.69 in 8.0 mi South 16.1 mph 21.9 mph 0.15 in Rain Rain
1:53 AM 50.0 °F 48.0 °F 93% 29.67 in 7.0 mi South 10.4 mph - 0.18 in Rain Heavy Rain
2:53 AM 51.1 °F 48.9 °F 92% 29.67 in 8.0 mi SSW 6.9 mph - 0.12 in Rain Rain
3:53 AM 51.1 °F 48.9 °F 92% 29.65 in 10.0 mi South 13.8 mph 20.7 mph 0.04 in Rain Light Rain
4:53 AM 52.0 °F 48.9 °F 89% 29.63 in 10.0 mi South 10.4 mph 19.6 mph 0.01 in Rain Light Rain
5:53 AM 54.0 °F 48.0 °F 80% 29.62 in 10.0 mi SSW 12.7 mph - 0.01 in Rain Light Rain
6:53 AM 55.0 °F 48.0 °F 77% 29.60 in 10.0 mi SSW 15.0 mph 19.6 mph 0.01 in Rain Light Rain
7:53 AM 55.0 °F 48.0 °F 77% 29.59 in 10.0 mi South 12.7 mph 17.3 mph 0.00 in Rain Light Rain
8:53 AM 57.0 °F 46.9 °F 69% 29.58 in 10.0 mi SSW 10.4 mph 19.6 mph 0.00 in   Overcast
9:53 AM 59.0 °F 46.9 °F 64% 29.59 in 10.0 mi South 19.6 mph 31.1 mph 0.01 in Rain Light Rain
10:53 AM 59.0 °F 48.0 °F 67% 29.57 in 10.0 mi South 16.1 mph 23.0 mph 0.01 in Rain Light Rain
11:53 AM 57.0 °F 50.0 °F 77% 29.56 in 8.0 mi South 17.3 mph 26.5 mph 0.04 in Rain Rain
12:53 PM 55.0 °F 52.0 °F 89% 29.58 in 5.0 mi SSW 10.4 mph 19.6 mph 0.19 in Rain Rain
1:53 PM 54.0 °F 52.0 °F 93% 29.57 in 7.0 mi South 16.1 mph 23.0 mph 0.17 in Rain Rain
2:34 PM 53.6 °F 51.8 °F 94% 29.61 in 2.5 mi West 11.5 mph 19.6 mph 0.16 in Rain Heavy Rain
2:40 PM 53.6 °F 51.8 °F 94% 29.62 in 0.8 mi WSW 17.3 mph 23.0 mph 0.31 in Rain Heavy Rain
2:53 PM 54.0 °F 52.0 °F 93% 29.61 in 1.5 mi SW 9.2 mph 24.2 mph 0.42 in Rain Heavy Rain
2:57 PM 53.6 °F 51.8 °F 94% 29.61 in 3.0 mi SSW 6.9 mph 20.7 mph 0.01 in Rain Rain
3:18 PM 53.6 °F 51.8 °F 94% 29.62 in 2.5 mi South 8.1 mph - 0.10 in Rain Heavy Rain
3:42 PM 53.6 °F 51.8 °F 94% 29.60 in 4.0 mi South 10.4 mph 16.1 mph 0.19 in Rain Rain
3:53 PM 54.0 °F 52.0 °F 93% 29.62 in 4.0 mi SSW 10.4 mph - 0.24 in Rain Heavy Rain
4:53 PM 54.0 °F 52.0 °F 93% 29.62 in 5.0 mi SSW 9.2 mph 18.4 mph 0.23 in Rain Heavy Rain
5:53 PM 54.0 °F 51.1 °F 90% 29.65 in 10.0 mi South 11.5 mph 18.4 mph 0.20 in Rain Light Rain
6:53 PM 52.0 °F 50.0 °F 93% 29.67 in 10.0 mi South 11.5 mph - 0.04 in Rain Light Rain
7:53 PM 53.1 °F 50.0 °F 89% 29.69 in 10.0 mi South 13.8 mph 18.4 mph 0.00 in   Overcast
8:53 PM 52.0 °F 50.0 °F 93% 29.72 in 10.0 mi South 10.4 mph 20.7 mph 0.01 in Rain Light Rain
9:53 PM 52.0 °F 48.9 °F 89% 29.72 in 10.0 mi South 16.1 mph 21.9 mph 0.02 in   Overcast
10:53 PM 52.0 °F 48.9 °F 89% 29.75 in 10.0 mi South 12.7 mph - 0.00 in   Overcast
11:53 PM 52.0 °F 48.9 °F 89% 29.75 in 10.0 mi Variable 5.8 mph - 0.00 in   Overcast